Flag for U.S.A. Weather past 2 weeks in Cambridge, Massachusetts, U.S.A.

Now
74 °F

Scattered clouds.


Feels Like: 77 °F
Forecast: 63 / 79 °F
Wind: 15 mph from Northwest

Location: Logan International Airport

Current Time: Aug 28, 2014 at 9:39:16 AM

Latest Report: Aug 28, 2014 at 8:54 AM


Visibility: 10 mi

Pressure: 29.82 "Hg

Humidity: 57%

Dew point: 58 °F

Location of CambridgeLocation

Historic Weather in Cambridge — Graph

°F

Cambridge temperature yesterday

Maximum temperature yesterday: 90 °F (at 1:54 PM)
Minimum temperature yesterday: 68 °F (at 4:54 AM)
Average temperature yesterday: 79 °F

Past Weeks' High & Low Weather Summary

 TemperatureHumidityPressure
High90 °F (Aug 27, 1:54 PM)97% (Aug 13, 7:54 AM)30.16 "Hg (Aug 13, 7:54 AM)
Low59 °F (Aug 19, 5:54 AM)35% (Aug 18, 2:54 PM)29.60 "Hg (Aug 13, 7:54 PM)
Average69 °F68%29.96 "Hg
* Reported Aug 13 7:54 AM — Aug 28 7:54 AM, Cambridge, Weather by CustomWeather, © 2014

Note: Actual official high and low records may vary slightly from our data, if they occured in-between our weather recording intervals... More about our weather records

Advertising

Cambridge weather history for previous 24 hours

 ConditionsComfort  
Time TempWeatherWind HumidityBarometerVisibility
7:54 AM
Aug 28
72 °FScattered clouds.14 mph61%29.82 "Hg10 mi
6:54 AM71 °FPassing clouds.12 mph66%29.82 "Hg10 mi
5:54 AM71 °FPassing clouds.10 mph66%29.80 "Hg10 mi
4:54 AM72 °FPassing clouds.9 mph76%29.80 "Hg10 mi
3:54 AM72 °FClear.7 mph76%29.80 "Hg10 mi
2:54 AM73 °FPassing clouds.10 mph81%29.80 "Hg10 mi
1:54 AM74 °FPassing clouds.8 mph85%29.81 "Hg10 mi
12:54 AM75 °FPartly cloudy.8 mph82%29.83 "Hg10 mi
10:54 PM
Aug 27
74 °FPartly cloudy.10 mph88%29.84 "Hg10 mi
9:54 PM75 °FLight rain. Mostly cloudy.10 mph82%29.85 "Hg10 mi
8:54 PM79 °FLight rain. Partly cloudy.12 mph69%29.87 "Hg10 mi
7:54 PM83 °FBroken clouds.15 mph59%29.85 "Hg10 mi
6:54 PM85 °FScattered clouds.16 mph55%29.84 "Hg10 mi
5:54 PM87 °FScattered clouds.10 mph53%29.83 "Hg10 mi
4:54 PM89 °FScattered clouds.12 mph50%29.84 "Hg10 mi
3:54 PM90 °FScattered clouds.14 mph47%29.84 "Hg10 mi
2:54 PM89 °FPassing clouds.16 mph46%29.86 "Hg10 mi
1:54 PM90 °FPassing clouds.21 mph43%29.88 "Hg10 mi
12:54 PM89 °FPassing clouds.17 mph43%29.90 "Hg10 mi
11:54 AM87 °FPassing clouds.14 mph46%29.92 "Hg10 mi
10:54 AM84 °FPassing clouds.14 mph49%29.95 "Hg10 mi
9:54 AM81 °FPassing clouds.12 mph53%29.96 "Hg10 mi
Weather by CustomWeather, © 2014

See weather overviewHow to use our weather pages